Temp
14 14 14 14 14 14 13 13 13 13 13 12 12 12 12 12 12 12 12 12 12 12 12 12 12 12 11 11 11 11 10 10 10 10 11 11 11 11 11 11 11 11 11 11 11 10 10 10 10 9 8 8 8 7 7 7 7 7 7 7 7 8 8 8 8 9 9 9 9 10 10 10 11 12 13 14 15 15 16 16 16 16 16 16 16
14 14 14 14 13 13 13 13 13 12 12 12 12 12 12 12 12 12 12 12 12 12 12 12 11 11 11 11 10 10 9 9 9 10 10 11 11 11 11 11 11 11 10 10 10 10 9 9 9 8 7 7 7 7 6 6 6 6 7 7 7 7 7 7 8 8 8 8 8 9 9 10 10 11 12 12 13 14 15 16 16 16 15 15 15
13 13 13 13 13 13 13 13 12 12 12 12 12 12 12 12 12 12 12 12 12 11 11 11 11 11 10 10 9 9 8 8 9 9 10 10 11 11 11 11 10 10 10 10 9 9 9 8 8 8 7 7 7 6 6 6 6 6 6 6 6 6 6 6 6 7 7 7 8 8 8 9 9 10 11 12 12 13 14 15 16 16 15 15 15
13 13 13 13 13 13 13 12 12 12 12 12 12 12 12 12 12 12 12 11 11 11 11 11 10 10 10 9 9 8 7 7 8 8 9 10 10 10 10 10 10 10 10 9 9 9 8 8 8 7 7 7 6 6 6 5 5 5 5 5 5 5 6 6 6 6 6 7 7 8 8 8 9 9 10 11 12 13 14 15 15 15 15 15 15
13 13 13 13 13 13 12 12 12 12 12 12 12 12 12 12 12 12 11 11 11 11 11 11 10 9 9 8 8 7 6 7 7 8 9 10 10 10 10 10 10 9 9 9 9 8 8 8 7 7 7 6 6 6 5 5 5 5 4 5 5 5 5 5 5 6 6 7 7 7 8 8 9 9 10 10 11 12 12 13 14 15 15 15 15
13 13 13 12 12 12 12 12 11 11 12 11 11 12 12 12 12 11 11 11 11 11 10 10 10 9 8 7 7 6 6 6 7 7 8 9 10 10 10 9 9 9 9 9 8 8 8 7 7 7 6 6 6 5 5 5 4 4 4 4 4 5 5 5 6 6 6 7 7 8 8 9 9 9 9 10 10 11 11 12 13 13 14 14 15
13 12 12 12 12 12 12 12 11 11 11 11 11 11 11 12 11 11 11 11 11 11 10 10 9 9 8 7 6 6 6 7 7 8 8 9 9 9 9 9 9 9 9 8 8 7 7 7 7 7 6 6 5 5 4 4 3 3 3 4 4 4 5 5 6 6 7 7 7 8 8 8 9 9 9 9 9 10 11 11 11 11 11 12 13
13 13 13 12 12 12 11 11 11 11 11 11 11 11 11 11 11 11 11 11 11 11 10 10 9 9 8 7 6 6 6 7 7 8 8 9 9 9 9 9 9 9 8 8 8 7 7 7 7 6 6 5 5 4 4 3 3 3 3 4 4 4 4 5 6 6 6 7 7 7 7 7 8 8 8 8 9 9 10 10 10 10 10 11 11
13 13 12 12 12 11 11 11 11 11 11 11 11 11 11 11 11 11 11 11 11 11 10 10 9 8 7 7 6 7 6 7 7 8 8 9 9 9 9 9 9 8 8 8 7 7 7 7 7 6 5 5 5 4 3 3 3 3 4 4 4 4 4 5 6 6 6 6 6 6 6 6 7 7 7 7 8 8 8 9 9 9 9 9 10
13 13 12 12 12 11 11 11 11 11 11 11 11 11 11 11 11 10 10 10 10 10 10 9 9 8 7 6 6 7 7 7 7 8 8 9 9 9 9 9 9 8 8 8 7 7 7 7 6 6 5 5 5 4 4 3 3 4 4 5 5 5 5 5 5 5 5 5 5 5 5 5 6 6 6 6 7 7 7 8 8 8 8 8 9
12 12 12 12 12 12 11 11 11 11 11 11 11 11 11 10 10 10 10 10 10 10 10 9 8 8 7 6 6 6 7 7 8 8 8 9 9 9 9 9 9 8 8 8 8 7 7 6 6 5 5 5 4 5 5 4 4 5 5 5 5 5 5 4 4 4 4 4 4 4 4 4 5 5 5 6 6 6 6 6 7 7 7 8 9
12 12 12 12 12 12 12 11 11 11 11 11 11 11 10 10 10 10 10 10 10 10 9 9 8 8 7 6 6 6 7 7 8 8 9 9 9 9 9 9 9 9 9 8 7 7 6 6 6 5 5 5 4 5 5 5 5 5 5 5 5 5 4 4 3 3 3 3 3 3 3 3 4 4 4 5 5 5 5 5 6 7 7 7 8
12 12 12 12 12 12 12 12 11 11 11 11 11 11 10 10 10 9 9 9 9 9 9 9 8 8 7 6 6 6 7 7 8 8 9 9 9 9 9 9 9 9 9 8 7 7 6 6 6 5 5 5 5 5 5 5 5 5 5 5 5 5 4 4 3 3 3 3 3 3 3 3 3 3 4 4 4 4 4 5 6 6 7 7 7
13 13 12 12 12 12 12 12 11 11 11 11 11 10 10 10 10 9 9 9 9 9 9 9 8 8 7 6 6 6 6 7 8 8 8 9 9 10 10 10 10 9 9 8 7 7 6 6 5 5 5 5 5 5 5 5 5 5 5 5 5 5 4 4 4 3 3 3 2 2 2 2 3 3 3 3 4 4 4 5 5 6 6 7 7
13 13 12 12 12 12 12 11 11 11 11 11 10 10 10 10 10 9 9 9 9 9 9 9 8 8 7 6 6 6 6 7 8 8 8 9 9 10 10 10 10 10 9 8 8 7 6 6 6 5 5 6 6 5 5 5 5 5 5 5 5 5 5 4 4 4 3 3 3 2 2 2 2 2 3 3 4 4 4 5 6 6 7 7 7
12 12 12 12 12 12 11 11 11 11 10 10 10 10 10 10 10 9 9 9 9 8 8 8 8 8 7 7 6 6 7 7 8 8 8 9 9 10 10 10 10 10 9 9 8 7 7 7 6 6 6 6 6 6 6 6 6 5 5 5 6 5 5 5 4 4 4 3 3 3 3 3 2 3 3 3 3 4 4 5 6 7 7 7 8
12 12 12 12 12 11 11 11 11 10 10 10 10 10 10 10 10 9 9 9 9 8 8 8 8 7 7 7 6 6 7 7 7 8 8 8 9 9 10 9 9 9 9 9 8 8 7 7 7 6 6 6 6 6 6 6 6 6 6 6 6 6 6 5 5 5 4 4 3 3 3 3 3 3 3 3 3 4 4 5 6 6 6 7 9
12 12 12 11 11 11 11 11 10 10 10 10 10 10 10 10 10 10 9 9 9 8 8 7 7 7 7 7 6 6 6 7 7 7 8 8 8 8 8 8 8 9 9 9 8 8 8 7 7 7 7 7 7 7 7 7 7 6 6 6 6 6 6 5 5 5 5 4 4 4 4 3 3 3 3 3 3 3 4 5 5 5 5 7 7
12 11 11 11 11 10 10 10 10 10 9 9 9 10 10 10 10 10 10 10 9 9 8 8 7 7 7 7 7 6 6 6 7 7 7 7 7 7 7 7 8 8 9 9 8 8 8 7 7 7 7 7 7 7 7 7 7 7 6 7 7 7 7 6 5 5 5 4 4 4 4 4 3 3 2 2 3 3 3 4 5 4 4 5 6
11 10 10 10 10 9 9 9 9 9 9 9 9 10 10 10 10 10 10 10 9 9 9 8 8 7 7 7 7 7 7 6 6 6 7 7 7 7 6 7 7 7 8 9 8 8 8 7 7 7 7 7 7 8 8 8 8 7 7 7 7 7 7 7 6 6 6 5 4 4 4 4 4 3 2 2 2 3 3 3 4 4 4 4 4
9 9 9 9 9 9 9 9 9 9 9 9 9 9 10 10 10 10 10 10 9 9 9 9 8 8 8 7 7 7 7 7 7 6 6 7 7 6 6 6 6 7 7 8 8 8 7 7 7 7 7 7 8 8 8 8 8 8 8 8 8 8 8 7 7 7 6 5 5 5 4 4 4 3 3 2 2 2 2 3 3 4 3 3 3
9 9 9 10 10 10 9 9 9 9 9 9 9 9 10 10 10 10 10 10 10 9 9 9 9 9 8 8 8 7 7 7 7 7 6 7 7 6 6 6 7 7 7 7 8 8 7 7 7 8 8 8 8 8 8 8 8 8 8 8 8 8 8 8 7 7 7 6 5 5 5 5 4 4 3 2 2 2 2 2 3 3 3 3 3
10 10 10 10 10 10 9 9 9 9 9 10 10 10 10 10 10 10 10 10 10 10 10 10 10 10 10 9 8 8 8 7 7 7 7 7 7 7 6 6 7 7 7 7 7 7 7 7 8 8 8 8 8 8 8 8 8 8 8 8 8 8 8 8 8 7 7 6 6 5 5 5 4 4 4 3 2 2 2 2 2 3 3 3 3
10 10 10 10 10 10 10 10 9 9 9 10 10 10 10 10 10 10 10 10 10 10 10 11 10 10 10 10 9 9 8 8 7 7 6 7 7 7 6 7 7 7 7 7 7 7 7 7 8 8 8 8 8 8 8 8 8 8 8 8 8 8 7 7 7 7 7 7 6 6 6 5 5 5 4 4 3 2 2 2 2 3 3 3 3
10 10 10 10 10 10 10 10 10 10 10 10 10 10 10 11 11 11 11 11 11 11 11 11 11 11 10 10 9 9 8 8 7 6 6 6 6 6 6 6 7 7 7 7 7 7 7 8 8 8 8 8 8 8 8 8 8 8 8 8 8 8 7 7 7 7 7 7 7 6 6 6 6 5 5 4 4 3 2 2 2 2 3 3 3
10 10 10 10 10 10 10 10 10 10 10 10 10 11 11 11 11 11 11 11 11 11 11 11 11 11 10 10 10 9 8 7 6 6 6 6 6 6 6 6 6 7 7 7 7 8 8 8 9 9 8 8 8 8 8 8 8 8 8 8 8 7 7 7 7 7 7 7 7 7 7 7 6 6 5 5 4 4 3 2 2 2 2 2 2
10 11 11 11 11 11 10 10 10 11 11 11 11 11 11 11 11 11 11 11 11 11 11 11 11 11 10 10 10 9 8 7 6 6 6 6 6 6 6 6 6 7 7 7 8 8 8 8 9 9 9 8 8 8 8 8 8 8 8 8 7 7 7 7 7 7 7 7 7 7 7 7 6 6 6 5 5 4 4 3 2 2 2 2 2
11 11 11 11 11 11 10 11 11 11 11 11 11 11 11 10 10 10 10 10 10 11 10 10 10 10 9 9 9 9 8 7 6 6 6 6 6 6 6 6 6 7 7 7 7 8 8 9 9 9 9 8 8 8 8 8 8 8 8 8 7 7 7 6 6 6 6 6 6 7 7 7 7 6 6 6 5 5 4 4 3 2 2 2 2
11 11 11 11 11 10 10 11 11 10 10 10 10 10 9 9 9 9 9 9 9 9 9 9 8 8 8 8 8 8 7 6 6 6 6 6 6 6 6 6 7 7 7 7 7 8 9 9 9 9 9 8 8 8 8 8 8 8 8 8 7 7 7 6 6 6 6 6 6 6 7 7 7 6 6 6 6 5 5 4 4 3 2 2 2
11 11 11 11 10 10 11 11 11 10 9 9 9 9 8 8 9 9 9 9 9 9 8 8 8 7 7 7 7 7 7 6 6 6 6 6 6 6 6 7 7 7 7 7 8 8 9 9 9 9 9 8 8 8 8 8 8 8 7 7 7 7 6 6 6 6 6 6 6 6 6 7 7 6 6 6 6 6 5 5 4 4 3 2 2
11 11 11 11 11 11 11 11 11 10 9 9 8 8 8 8 8 8 8 8 8 8 8 8 8 7 7 7 7 7 7 7 7 6 6 6 7 7 7 7 8 8 8 8 8 8 9 9 9 9 9 8 8 8 8 8 8 7 7 7 7 7 6 6 6 6 6 6 6 6 6 7 7 7 6 6 6 6 6 5 5 4 4 3 2
11 11 11 11 11 11 11 11 11 10 9 9 8 8 7 7 7 7 8 8 8 8 8 8 8 7 7 7 7 7 7 7 7 7 7 7 7 7 7 7 8 8 8 8 8 9 9 9 9 9 9 8 8 8 8 8 8 7 7 7 7 7 6 6 5 5 6 6 6 6 6 6 7 7 7 6 6 6 6 5 5 5 4 4 3
11 11 11 11 11 11 11 11 10 10 10 9 9 8 8 7 7 7 7 7 8 8 8 8 8 8 7 7 7 7 7 7 7 7 7 7 7 7 8 8 8 9 9 9 9 9 9 9 9 9 9 8 8 8 8 8 8 7 7 7 7 6 6 6 5 5 5 6 6 6 6 6 7 7 7 7 7 6 6 6 5 5 5 4 3
11 11 11 11 11 11 11 11 11 10 10 10 10 9 9 9 8 7 7 7 7 7 8 8 8 8 8 7 7 7 7 7 7 7 7 8 7 8 8 9 9 9 9 9 9 9 9 9 9 9 9 8 8 8 8 8 7 7 7 7 7 6 6 6 5 5 5 6 6 6 6 6 6 6 7 7 7 7 6 6 6 5 5 4 4
11 11 11 11 12 12 11 11 11 11 11 11 11 11 10 10 9 8 8 7 7 7 8 8 8 8 8 8 8 8 8 8 8 8 8 8 8 8 8 9 9 10 10 9 9 9 9 9 9 9 8 8 8 8 8 7 7 7 7 6 6 6 6 6 5 5 5 5 5 5 6 6 6 6 6 7 7 7 7 7 6 6 6 5 5
11 11 11 11 12 12 12 12 12 12 12 12 12 12 11 11 10 10 9 9 8 8 8 8 8 8 8 8 8 8 8 8 8 8 8 8 8 8 8 8 9 10 10 10 9 9 9 9 9 9 8 8 8 8 8 7 7 7 6 6 6 6 6 6 5 5 5 5 5 5 5 6 6 6 6 6 6 6 7 7 7 7 6 6 5
11 11 11 12 12 12 12 12 12 12 12 12 12 12 12 11 11 11 11 10 10 10 9 8 8 8 8 8 8 8 8 8 8 8 8 8 8 9 9 9 9 9 10 10 9 9 9 9 9 9 8 8 8 8 8 7 7 7 6 6 6 6 6 6 5 5 5 5 5 5 5 5 6 6 6 6 6 6 6 7 7 7 7 6 6
11 11 11 12 12 12 12 12 12 12 12 12 12 12 11 11 12 12 12 11 11 11 10 9 9 9 9 9 9 9 8 8 8 8 9 9 9 9 9 9 9 10 10 9 9 9 9 9 9 9 8 8 7 7 7 7 7 6 6 6 6 6 5 5 5 5 5 5 5 5 5 5 6 6 6 6 6 6 6 6 7 7 7 7 7
11 11 11 12 12 12 12 11 11 11 11 12 12 12 12 12 12 12 12 11 11 11 11 10 10 10 10 10 9 9 8 8 8 9 9 9 9 9 9 10 10 10 10 9 9 9 9 9 9 8 8 8 7 7 7 7 7 6 6 6 6 6 5 5 5 5 4 5 5 5 5 5 6 6 6 6 6 6 6 6 6 7 7 7 7
11 11 11 12 12 12 11 11 11 11 11 11 12 12 11 12 12 12 12 12 11 11 11 11 11 11 11 10 9 9 9 9 9 9 10 10 10 10 10 10 10 10 10 9 9 9 9 9 9 8 8 8 7 7 7 7 7 6 6 6 6 6 5 5 5 5 4 4 5 5 5 5 6 6 6 6 6 6 6 6 6 6 7 7 7
11 11 11 11 12 12 11 11 11 11 11 11 12 12 11 11 11 12 12 12 12 11 11 11 12 12 11 11 10 10 10 10 10 10 10 10 10 10 10 10 10 10 10 9 9 9 9 9 8 8 8 8 7 7 7 7 7 6 6 6 6 6 5 5 5 5 4 4 5 5 5 5 6 5 5 5 6 6 6 6 6 6 6 6 7
11 11 11 11 11 12 11 11 11 11 11 11 12 12 12 11 11 11 12 12 12 11 11 11 11 11 11 11 11 10 10 10 10 9 10 10 10 10 10 10 10 10 10 9 9 9 9 8 8 8 8 7 7 7 7 7 7 6 6 6 6 6 6 5 5 5 4 4 4 5 5 5 5 5 5 5 5 5 5 6 6 6 6 6 6
11 11 11 11 11 11 12 11 11 11 11 11 12 12 12 12 12 11 12 12 11 11 11 11 11 11 11 11 11 10 10 10 10 9 9 10 10 10 10 10 10 10 10 10 9 9 9 9 8 8 8 7 7 7 7 7 7 7 6 6 6 6 6 6 5 5 4 4 4 4 5 5 5 5 5 5 5 5 5 5 5 6 6 6 6
10 10 10 10 11 11 12 12 12 12 12 12 12 12 12 12 12 12 12 11 11 11 11 11 11 11 11 10 10 10 10 10 10 10 10 10 10 10 10 10 10 10 10 10 9 9 9 9 8 8 8 7 7 7 7 7 7 7 7 6 6 6 6 6 5 5 4 4 4 4 4 4 5 5 5 5 5 5 5 5 5 5 5 6 6
10 10 10 10 11 11 11 12 12 12 12 12 11 11 11 11 11 12 12 12 12 11 11 11 11 11 11 10 10 10 10 10 10 10 10 10 10 11 11 10 10 10 10 10 10 9 9 9 8 8 8 7 7 7 7 7 7 7 7 7 6 6 6 6 5 5 5 4 4 4 4 4 4 5 5 5 4 4 4 5 5 5 5 5 6
11 11 11 11 11 11 11 11 12 12 12 12 11 11 11 11 11 11 12 12 12 12 12 11 11 11 11 11 11 10 10 10 10 11 11 11 11 11 11 11 10 10 10 10 10 9 9 9 8 8 8 7 7 7 7 7 7 6 6 7 7 7 7 6 6 6 5 5 5 5 4 4 4 4 4 4 4 4 4 4 4 5 5 5 5
12 11 11 11 11 11 11 12 12 12 12 12 12 12 11 11 11 11 11 12 12 12 12 12 12 12 12 12 11 11 11 11 11 11 11 11 11 11 11 11 11 10 10 10 10 9 9 9 8 8 8 8 7 7 7 7 7 6 6 6 7 7 7 7 6 6 6 5 5 5 4 4 4 4 4 4 4 4 4 4 4 4 4 5 5
12 12 12 12 12 12 12 12 12 12 12 12 12 12 12 12 12 12 12 12 12 12 12 12 12 12 12 12 12 12 12 12 11 11 11 11 11 11 11 11 11 10 10 10 10 9 9 9 9 8 8 8 8 8 7 7 7 7 7 6 6 6 7 7 7 6 6 6 6 5 5 4 4 4 4 4 4 4 4 4 4 4 4 4 5
12 12 12 12 12 12 12 12 12 12 12 12 12 12 12 12 12 12 12 12 12 12 12 12 12 12 12 12 12 12 12 12 12 12 11 11 11 11 11 11 11 11 10 10 10 10 9 9 9 8 8 8 8 8 8 7 7 7 7 7 6 6 6 6 6 6 6 6 6 5 5 4 4 4 4 4 4 4 4 4 4 4 4 4 4
12 12 12 12 13 13 13 13 13 12 12 12 12 12 12 12 12 12 12 12 12 12 12 12 12 12 12 12 12 12 12 12 12 12 11 11 11 11 11 11 11 11 11 10 10 10 10 9 9 9 9 8 8 8 8 8 7 7 7 7 7 6 6 6 6 6 6 6 6 5 5 5 4 4 4 4 4 4 4 4 4 3 3 3 4
12 12 12 13 13 13 13 13 13 13 13 12 12 12 12 12 12 12 12 12 12 12 12 12 12 12 12 12 12 12 12 12 12 12 12 12 12 12 12 11 11 11 11 11 11 10 10 10 9 9 9 9 8 8 8 8 8 8 8 7 7 7 6 6 6 6 6 6 5 5 5 5 4 4 4 4 4 4 3 3 3 3 3 3 3
Height
819 820 822 823 825 826 827 829 830 832 833 835 836 836 837 837 838 839 839 840 840 840 840 839 839 838 837 836 835 834 834 834 834 834 834 834 834 834 834 834 834 834 834 834 833 833 832 832 831 830 829 828 826 824 823 821 819 817 815 812 810 809 806 804 799 792 786 785 783 779 774 771 768 765 762 759 756 755 753 751 749 748 748 748 747
819 820 822 823 825 826 827 829 830 832 834 835 836 836 837 837 838 839 840 841 841 841 841 840 839 838 837 836 835 835 835 835 835 835 835 835 835 835 835 835 835 835 836 836 835 835 834 833 832 832 830 829 828 826 824 822 820 817 815 813 810 808 806 803 799 794 787 783 781 778 774 771 767 763 761 758 755 753 751 749 747 745 744 744 743
819 821 822 824 826 827 829 830 831 833 834 836 836 836 837 838 839 840 841 842 842 841 841 840 839 838 837 837 836 836 836 836 836 836 836 836 836 836 836 836 837 837 837 837 837 836 836 835 834 833 831 830 828 827 825 822 820 818 815 813 811 808 806 804 800 796 790 784 780 778 774 771 767 763 760 758 754 751 748 746 744 742 740 739 738
820 821 823 825 827 828 830 831 832 834 835 836 836 837 838 838 840 841 842 843 842 842 842 841 840 839 838 838 837 837 837 837 837 837 837 838 838 838 838 838 838 839 839 839 838 838 837 836 835 834 833 831 829 827 826 823 821 818 815 813 811 808 805 803 801 797 792 785 781 778 775 771 767 763 760 756 753 750 746 743 741 739 736 735 734
821 822 824 825 827 829 830 832 833 834 835 836 837 838 839 839 841 842 843 843 843 843 842 841 841 840 839 839 838 838 838 838 838 837 837 838 839 839 839 840 840 840 840 840 840 839 838 837 837 836 834 832 830 828 826 824 821 818 816 813 811 808 805 802 800 796 792 787 781 777 774 771 767 763 760 756 752 748 745 741 739 737 734 731 729
821 823 824 825 827 829 830 832 833 835 836 837 838 839 840 840 842 843 843 844 844 843 843 842 841 841 840 840 839 839 840 839 839 838 838 838 839 840 841 841 841 842 841 841 841 840 840 839 838 837 835 833 831 829 827 824 821 818 816 813 811 808 805 801 798 795 791 787 782 777 773 770 766 762 759 757 753 748 743 739 736 734 732 729 726
821 823 824 825 827 829 831 832 834 835 836 837 838 839 840 841 842 843 844 844 845 844 844 843 843 842 841 841 840 840 840 840 840 840 840 840 840 841 843 843 843 843 843 843 843 842 841 840 839 837 836 834 832 830 827 824 821 818 816 813 810 807 804 801 797 794 790 786 782 777 772 769 766 763 759 756 753 749 745 740 734 730 729 727 725
821 823 824 825 827 829 831 833 834 836 837 838 839 840 841 842 843 844 845 845 845 845 845 845 844 843 843 842 841 841 842 842 842 841 842 842 842 842 844 844 844 844 844 844 844 843 842 841 840 838 837 835 833 830 827 825 822 818 815 812 809 806 803 800 796 793 790 787 782 778 774 769 766 763 759 756 752 748 746 743 737 731 728 725 722
820 822 824 826 828 829 832 833 835 837 838 839 840 841 842 843 844 845 846 846 846 846 846 846 845 845 844 843 843 843 843 843 843 843 843 843 843 844 845 846 845 845 845 845 844 844 843 842 841 839 838 836 833 830 827 825 822 819 815 812 809 806 803 800 796 793 790 787 783 779 775 770 766 763 759 756 753 749 745 742 737 733 730 724 718
821 823 825 827 829 830 832 834 835 837 839 840 841 842 843 844 845 846 846 847 847 847 847 847 846 846 845 844 844 845 845 845 845 845 845 845 845 845 846 847 846 846 846 845 845 844 843 842 841 840 838 835 832 828 825 824 821 819 816 813 810 807 803 800 797 794 791 788 785 780 775 771 768 764 760 757 754 750 746 742 737 732 730 724 713
821 823 825 827 829 831 833 834 836 838 839 841 842 843 844 845 846 847 847 848 849 849 849 848 848 847 846 846 846 846 846 846 846 846 846 846 846 846 847 848 847 846 846 845 845 845 844 843 841 840 838 835 831 828 825 823 820 818 817 814 812 809 805 802 799 796 793 789 786 782 777 772 768 765 761 756 753 749 745 741 737 732 729 724 715
822 824 826 828 830 832 834 835 837 839 840 841 843 844 845 846 847 848 849 849 850 850 850 850 849 849 848 847 847 847 848 848 847 847 846 847 847 847 848 848 847 847 846 845 845 845 844 843 841 840 838 836 833 829 825 823 820 818 817 814 812 810 807 805 802 798 794 790 786 783 778 773 768 764 760 756 751 747 743 739 734 731 726 722 717
823 825 826 829 830 832 834 836 838 839 841 842 843 844 846 847 848 849 850 851 851 851 852 851 851 851 850 849 849 849 850 849 849 848 847 848 848 848 848 849 848 847 846 845 845 845 844 843 841 840 839 837 834 830 827 823 820 818 817 814 812 810 808 805 803 799 795 791 787 782 778 773 768 763 760 755 750 745 740 735 730 727 723 718 714
823 825 827 829 831 833 835 836 838 840 841 843 844 845 846 848 849 850 851 852 852 853 853 853 853 853 852 851 851 851 851 850 850 849 849 849 849 848 849 849 848 847 847 846 845 845 844 843 842 841 839 837 834 831 828 824 821 819 818 815 812 810 807 804 801 798 794 791 787 782 777 773 768 763 758 753 749 743 738 733 727 722 718 712 708
823 825 828 830 831 833 835 837 839 840 842 843 844 846 847 849 850 851 852 853 854 854 855 855 854 854 853 853 853 852 852 851 851 850 850 850 849 848 849 849 848 848 847 846 846 845 844 844 843 842 840 838 835 832 829 825 823 821 818 815 812 809 806 803 800 797 794 790 787 782 777 772 767 761 756 750 746 741 735 729 723 718 712 706 701
823 825 828 830 832 834 835 837 839 840 842 843 844 847 848 850 851 852 853 854 855 856 856 856 856 856 855 855 854 854 853 852 852 852 851 851 849 849 849 850 849 848 848 847 846 846 845 845 844 842 840 838 835 832 830 826 823 821 818 815 812 809 806 803 800 797 794 790 786 781 776 771 765 759 754 748 743 738 731 724 719 715 709 702 696
824 826 828 830 832 834 835 837 839 840 842 843 845 847 849 851 852 853 854 856 857 857 857 857 857 857 857 857 856 855 855 854 854 854 853 852 851 849 850 850 849 849 849 848 847 847 846 845 844 843 840 838 835 832 830 826 823 821 818 814 811 808 806 803 799 796 794 789 785 780 775 769 763 756 751 746 741 736 729 722 717 713 708 701 694
824 826 828 830 832 834 836 837 839 840 842 843 845 847 849 852 853 854 855 857 858 858 858 858 858 858 858 859 858 857 857 856 856 855 854 853 852 851 850 850 850 850 850 849 849 848 847 846 845 843 840 838 835 832 829 827 823 821 818 814 811 807 805 802 799 795 792 787 782 778 772 767 761 755 749 745 740 735 730 724 719 714 707 701 695
824 826 828 830 832 834 836 837 839 840 842 843 846 847 849 852 854 855 856 858 858 859 859 859 859 859 860 860 859 859 859 858 858 856 855 855 853 852 851 851 850 850 850 850 850 849 848 847 845 843 840 838 835 832 829 827 824 821 818 815 811 807 804 802 799 795 790 785 780 776 771 766 761 755 751 746 741 736 731 726 720 715 709 703 697
824 826 829 830 833 835 836 838 839 841 842 844 846 848 850 853 854 856 857 858 859 859 859 859 860 860 861 860 860 860 860 859 859 858 857 856 854 853 852 852 852 851 851 851 851 849 849 847 845 843 840 837 835 832 830 827 825 822 819 816 813 809 805 802 800 796 792 787 782 777 772 767 762 758 753 748 743 738 733 727 722 718 712 705 699
824 827 829 831 834 836 837 839 840 842 843 845 846 849 851 853 855 856 857 858 859 859 860 860 861 861 861 861 861 861 861 860 860 859 857 856 855 854 854 854 854 853 852 852 851 850 849 847 845 843 840 838 835 833 830 828 825 822 820 817 815 811 807 803 801 798 793 788 784 778 773 769 764 760 755 751 746 741 735 729 724 719 714 707 702
825 828 830 833 835 836 838 840 841 843 844 845 847 850 852 854 855 856 857 858 859 860 860 860 861 861 861 861 861 861 861 861 860 859 858 857 857 856 856 855 855 854 853 852 851 850 849 847 845 843 841 838 836 833 831 829 826 823 821 819 816 813 808 805 802 799 794 790 785 780 775 770 766 762 758 753 748 743 737 732 727 722 717 712 706
826 828 831 833 835 837 839 840 842 843 845 847 849 851 853 855 856 857 858 858 859 859 860 860 861 861 861 861 861 861 861 861 860 859 858 858 858 858 857 856 856 854 853 853 852 851 849 847 845 843 841 839 837 834 832 830 827 824 822 819 816 813 810 806 803 800 796 791 787 782 777 773 769 765 761 757 752 746 741 736 730 725 720 715 710
827 829 831 833 835 837 839 841 842 844 846 848 850 852 854 855 856 857 857 858 858 859 859 860 860 861 861 862 862 862 862 861 860 859 859 859 858 858 858 857 856 855 854 853 852 851 849 847 845 844 842 840 837 835 833 831 828 825 823 820 817 814 811 808 805 801 797 793 788 784 780 776 772 769 765 761 756 750 745 740 735 729 724 720 714
826 829 831 833 835 837 839 841 843 845 847 849 851 853 854 854 855 856 857 857 858 858 859 859 860 861 861 862 862 862 862 861 860 860 860 859 859 859 858 857 856 855 854 854 852 851 849 847 846 844 843 841 838 835 833 831 829 826 824 821 818 816 813 809 806 803 799 795 791 788 784 780 776 773 769 765 759 753 747 743 738 733 728 723 718
826 829 831 833 835 837 839 841 844 846 848 850 851 853 854 854 855 856 856 857 857 858 858 859 860 861 861 861 861 861 861 861 861 861 860 860 859 858 858 857 856 855 855 854 852 851 849 847 846 845 843 842 839 836 834 832 830 827 825 822 819 817 814 811 808 805 802 798 795 791 788 784 781 776 772 767 761 756 752 747 741 736 731 727 723
826 828 830 833 835 838 840 842 844 847 849 850 851 853 853 854 855 855 856 857 857 858 859 859 860 860 860 860 861 861 861 861 861 861 861 860 859 858 857 857 856 855 854 853 852 850 849 847 847 846 844 842 840 838 835 834 831 828 826 824 821 819 816 814 811 808 805 802 798 795 791 788 784 779 774 769 764 760 756 751 745 741 737 733 729
826 828 831 833 836 838 840 842 844 847 848 849 851 852 852 853 854 854 855 856 857 858 859 859 860 860 860 860 861 861 862 862 862 861 861 860 859 859 858 857 856 855 854 853 852 850 849 848 847 846 844 842 840 838 836 834 832 830 827 825 823 820 818 816 813 810 807 804 800 797 793 789 786 781 777 772 768 764 760 755 750 746 742 738 734
826 828 831 833 836 838 840 842 844 846 847 848 850 851 852 853 854 855 856 857 857 858 859 859 860 860 860 860 861 861 862 862 862 862 861 860 860 859 858 857 856 855 855 854 852 850 849 848 848 846 844 843 841 839 837 835 833 831 829 827 825 822 819 817 814 811 809 806 802 798 795 791 788 785 781 776 772 768 764 759 755 751 747 743 740
826 829 831 833 836 838 840 842 844 846 848 849 850 852 853 854 855 856 857 858 858 859 859 859 860 860 860 861 861 862 862 862 862 862 861 860 860 859 858 858 857 856 855 854 852 851 850 849 848 846 845 844 842 840 838 836 834 832 830 828 826 824 821 819 816 814 811 808 805 801 797 794 791 788 784 781 777 773 769 764 761 757 753 750 748
825 828 830 833 835 837 839 841 843 846 848 850 851 853 854 856 857 857 858 859 859 859 859 859 860 860 860 861 861 862 862 862 862 861 861 860 860 859 858 858 857 856 855 854 852 851 850 849 848 847 846 845 843 842 840 838 836 834 831 829 827 825 823 821 819 816 813 810 807 803 800 796 794 791 788 785 781 778 774 770 766 763 760 757 755
825 827 830 833 835 837 839 841 843 846 848 850 852 853 855 856 857 858 859 859 859 859 859 859 860 861 861 861 861 862 862 862 861 861 860 860 860 859 858 857 856 856 855 854 852 852 851 850 849 848 847 846 844 843 841 839 838 836 833 831 829 827 825 824 822 819 815 812 810 806 803 800 797 794 791 788 785 782 778 775 772 769 767 765 762
824 827 830 832 834 836 838 841 843 845 847 849 851 853 854 856 856 857 858 858 859 859 859 860 860 861 861 861 861 861 861 861 861 860 860 860 859 858 858 857 856 855 855 854 853 852 851 851 850 848 848 846 845 844 843 841 839 837 835 833 831 829 827 825 823 821 818 815 813 809 806 803 800 797 795 792 788 785 782 780 778 775 773 771 769
824 827 829 831 833 835 838 840 842 844 846 848 850 851 853 854 854 855 856 857 858 859 859 860 860 860 861 861 861 861 861 861 860 860 860 859 859 858 857 856 855 855 854 853 853 852 852 851 850 849 848 847 846 845 843 842 841 839 837 835 833 831 828 826 824 821 819 818 816 812 809 806 803 800 798 795 792 789 786 784 782 780 778 777 776
824 827 829 831 832 834 837 839 841 843 845 846 848 849 850 851 853 854 854 855 856 857 858 859 859 859 860 860 860 860 860 860 860 860 859 859 859 858 857 856 855 854 854 853 853 853 852 851 850 850 849 848 847 845 844 843 842 840 838 836 834 832 830 827 825 823 820 819 817 815 812 809 807 803 801 799 796 793 790 788 786 785 783 782 780
824 827 828 830 832 834 836 838 840 842 843 844 846 847 848 850 851 852 852 853 854 855 856 857 858 859 859 860 860 860 860 859 859 859 859 859 858 858 857 856 855 855 854 854 853 853 852 851 850 850 849 848 847 846 845 844 842 841 840 838 836 834 832 830 827 825 822 820 819 816 814 812 810 807 804 802 799 797 795 793 790 788 787 786 784
824 826 828 829 831 833 835 837 839 841 842 843 845 846 847 849 850 850 851 852 853 853 855 856 857 858 858 858 859 859 858 859 859 858 858 858 858 857 856 855 855 855 854 854 853 853 852 851 851 850 849 848 847 846 845 844 843 842 840 839 837 835 834 832 830 827 824 822 820 818 815 813 812 810 808 805 803 801 798 797 795 792 791 789 788
823 825 827 829 830 832 835 836 838 840 842 843 844 845 846 848 849 849 850 850 851 852 853 854 855 855 855 856 857 857 857 858 858 857 857 857 856 856 855 855 855 855 854 853 853 853 852 851 850 850 849 848 848 847 846 845 843 842 841 839 838 836 835 833 831 829 827 824 822 821 818 815 813 812 810 808 806 804 802 800 798 796 794 792 791
823 825 827 828 830 832 834 835 837 840 841 842 843 844 845 847 847 848 849 849 851 852 852 852 853 853 853 854 856 856 856 857 856 855 855 855 855 855 855 854 854 854 853 853 853 852 852 851 850 850 849 848 847 847 846 845 844 843 841 840 839 837 835 834 832 830 828 826 824 823 821 818 816 814 812 810 808 807 805 803 801 800 798 796 794
822 824 826 828 830 832 833 835 837 839 840 841 842 843 844 845 846 847 848 849 850 851 851 852 852 852 852 853 854 855 855 855 855 854 854 854 854 854 854 854 853 853 852 852 852 851 851 851 850 849 849 848 847 847 846 845 844 843 841 840 839 838 836 835 833 831 830 828 826 824 823 821 819 817 815 813 811 809 807 805 803 802 801 799 798
821 823 825 827 830 831 833 835 837 839 840 840 841 842 843 844 845 846 847 848 849 850 850 851 851 851 851 852 852 853 854 854 853 853 853 853 853 852 852 852 852 852 851 851 851 850 850 850 849 849 848 847 847 846 845 844 844 842 842 840 839 838 837 835 834 832 831 829 827 826 824 823 821 819 817 815 814 812 810 808 806 804 802 801 800
820 823 825 827 829 831 833 834 836 837 839 839 840 840 842 843 844 845 846 846 847 848 849 850 850 850 850 850 851 851 852 852 852 852 852 851 851 851 851 851 850 850 850 850 849 849 849 849 848 848 848 847 846 845 845 844 843 842 841 840 839 838 837 835 834 833 831 830 828 827 825 824 823 821 819 817 816 814 812 810 808 806 805 803 802
820 822 825 827 828 830 832 833 835 836 837 838 839 839 840 841 842 844 844 845 847 847 848 849 849 849 848 849 849 850 850 850 850 850 850 850 850 849 849 849 849 849 849 848 848 848 848 847 847 847 847 846 846 845 844 843 842 841 841 840 839 838 837 835 834 833 832 830 829 827 826 825 823 822 821 819 817 816 814 812 811 809 807 805 804
819 822 824 826 828 830 831 832 834 835 835 836 838 839 839 840 841 842 843 844 845 846 847 847 848 848 847 847 848 848 848 848 848 848 848 848 847 847 847 847 847 847 847 847 847 847 847 846 846 846 845 845 844 844 843 842 842 841 840 839 838 837 836 835 834 832 831 830 829 827 826 825 824 823 821 820 818 817 815 814 812 811 809 807 806
818 821 823 825 827 829 830 831 832 833 834 836 837 837 838 839 840 841 842 842 843 844 845 845 846 846 846 846 846 846 846 846 846 846 846 846 845 845 845 845 845 845 845 845 845 845 845 845 845 844 844 844 843 842 842 841 840 839 839 837 836 835 834 833 832 831 831 830 828 827 826 825 824 823 822 820 819 818 816 815 813 812 810 809 807
817 819 822 824 826 828 829 830 831 832 833 834 835 836 837 838 839 840 840 841 841 842 843 843 844 844 844 844 844 844 844 844 844 844 844 844 844 844 844 844 844 844 843 843 843 843 843 843 843 843 843 842 841 841 840 839 838 838 837 836 835 834 833 832 830 830 829 828 827 827 826 825 824 823 822 820 819 818 816 815 814 812 811 809 808
816 818 820 822 824 826 827 828 830 831 832 833 833 834 835 836 837 838 839 839 840 841 841 841 842 842 842 842 842 842 842 842 842 842 842 842 842 842 842 841 841 841 841 841 841 841 841 841 841 841 840 840 839 838 838 837 836 835 835 834 833 832 831 830 828 828 827 827 826 825 825 824 823 822 821 820 819 818 816 815 814 812 811 810 808
815 817 819 820 822 824 825 826 828 829 830 831 832 832 833 834 835 836 837 837 838 839 839 840 840 840 840 840 840 840 840 840 839 839 840 839 839 840 839 839 839 839 838 838 837 837 837 837 837 837 837 837 836 836 835 835 834 833 832 831 831 830 829 828 827 826 825 824 824 823 823 822 822 821 820 819 818 817 816 815 813 812 811 810 808
815 816 817 819 820 822 823 825 826 827 828 829 830 831 831 832 833 834 834 835 836 836 837 837 838 838 838 838 838 838 838 837 837 837 837 837 837 837 837 836 836 835 835 834 833 833 833 833 833 833 833 833 833 832 832 832 831 830 830 829 828 828 827 826 825 824 823 822 821 821 821 820 820 819 818 818 817 816 815 814 813 812 811 809 808
814 815 816 818 819 820 822 823 824 825 827 828 828 829 830 831 832 832 833 834 834 834 835 835 835 835 835 835 835 835 835 835 835 835 835 834 834 834 833 833 832 831 831 831 830 830 829 829 828 828 828 828 828 828 828 828 827 827 827 826 826 825 824 823 822 821 820 819 819 818 818 817 817 816 816 815 815 814 813 813 812 811 810 808 807
812 814 815 817 818 819 820 821 823 824 824 825 826 827 828 829 830 830 831 832 832 833 833 833 833 833 833 833 833 833 833 833 833 833 832 832 832 831 830 830 829 829 829 828 827 827 826 825 824 823 823 823 823 823 823 823 823 823 823 823 823 823 822 821 820 819 818 817 817 816 815 815 814 813 813 813 812 812 811 810 810 809 808 807 806
Wind_Speed
17 17 17 17 17 17 16 15 15 14 13 13 13 12 12 12 12 12 12 11 11 11 12 13 14 14 15 16 17 17 17 16 16 15 15 16 15 16 17 17 18 18 19 19 19 20 20 19 19 20 21 21 20 20 20 20 21 21 20 20 20 20 20 19 15 16 23 25 24 28 31 32 31 30 30 32 32 30 29 29 29 27 27 30 33
17 17 17 17 17 17 16 15 15 15 14 13 13 13 13 13 12 12 12 12 12 12 13 14 14 15 16 17 17 17 17 16 16 16 16 16 16 17 18 18 19 20 20 20 20 20 20 20 20 20 21 21 21 20 20 21 22 22 22 21 21 21 20 20 20 18 22 26 26 26 29 30 30 30 30 32 33 33 32 31 30 29 28 29 32
18 18 18 18 17 16 16 16 15 15 14 14 14 14 13 13 13 12 12 12 13 14 14 15 15 16 17 17 18 18 17 16 16 15 16 17 17 17 18 18 19 20 20 20 20 20 20 20 20 21 21 21 21 21 21 22 23 23 24 22 22 22 21 20 21 21 22 26 27 26 27 29 30 31 31 32 33 35 34 33 31 31 32 31 31
18 18 18 18 17 16 16 16 15 15 15 14 14 14 14 14 13 12 12 13 13 14 15 16 17 17 18 18 18 18 17 16 16 15 16 17 17 18 18 18 19 19 19 20 20 20 20 20 20 21 22 21 22 22 22 23 24 24 24 24 23 23 23 21 22 22 22 24 27 27 26 27 29 31 31 31 32 33 34 32 31 31 32 31 31
19 19 19 18 17 16 16 15 15 15 15 15 15 15 15 14 14 13 13 13 13 14 15 16 17 18 18 18 18 18 18 16 15 15 15 16 17 18 18 18 19 19 19 20 20 21 21 20 20 22 22 22 22 22 23 24 25 24 24 24 23 23 24 24 23 23 23 24 26 27 27 26 27 28 29 30 31 32 33 33 33 32 31 31 32
20 19 19 19 18 17 17 16 15 16 16 16 15 15 15 15 15 14 14 14 14 15 15 16 17 18 19 19 18 18 19 18 16 15 15 16 16 17 18 18 18 18 19 21 21 21 21 20 20 21 22 22 23 24 25 26 25 25 25 23 23 24 25 25 24 23 23 24 24 26 27 25 25 27 29 29 30 31 32 34 34 32 30 29 31
20 19 19 19 18 18 17 16 16 16 16 16 15 15 15 15 14 14 13 14 14 15 15 16 16 17 18 20 20 19 20 21 19 18 17 16 15 16 17 17 18 18 19 20 20 21 21 20 20 22 22 23 26 26 26 27 26 25 24 23 24 25 25 24 24 23 23 23 24 25 25 25 25 27 29 31 30 28 27 28 31 35 36 33 32
20 19 19 19 18 18 17 16 16 16 16 16 16 15 15 15 14 14 14 14 14 14 15 15 16 16 17 19 20 19 19 20 21 20 18 16 15 15 16 17 18 18 18 19 19 20 20 20 20 22 23 25 28 28 28 28 26 24 24 27 29 29 27 25 23 22 23 23 24 24 25 26 26 26 27 28 27 26 26 26 28 33 36 35 35
20 19 19 18 18 18 17 17 17 16 16 17 16 16 16 15 15 14 14 14 14 15 15 15 16 17 17 18 19 18 17 18 19 18 17 17 16 15 15 16 17 17 17 17 18 19 20 20 20 21 23 27 30 31 29 26 23 23 26 30 33 33 32 27 22 21 22 22 24 25 24 25 25 25 25 25 25 27 29 30 28 29 33 37 40
19 19 18 18 18 18 18 17 17 17 17 17 16 16 15 15 15 14 14 14 14 14 15 16 17 17 17 19 19 18 16 16 16 15 15 16 15 15 14 15 15 15 15 16 17 19 20 20 19 19 23 29 33 34 31 25 23 24 27 29 30 31 32 27 20 20 21 21 23 25 23 22 25 26 26 26 28 29 29 29 29 31 32 31 35
19 18 18 18 18 18 18 18 17 17 17 16 16 16 15 15 15 14 14 13 13 13 14 15 17 17 18 20 21 18 15 15 14 14 14 14 13 13 13 13 13 14 14 15 18 20 20 19 18 19 24 30 35 36 33 28 27 28 29 28 26 28 30 26 21 22 23 22 24 25 22 23 26 27 27 27 28 29 29 29 28 29 27 20 21
18 18 18 18 18 18 18 18 17 17 17 16 16 15 15 15 14 14 13 13 13 13 13 15 16 17 19 22 22 18 14 13 13 14 14 13 12 12 12 12 13 13 13 14 18 21 21 19 18 19 23 28 34 36 33 30 30 30 30 28 27 27 28 27 25 26 26 24 25 25 24 25 29 28 27 28 29 32 32 30 28 25 25 22 19
19 19 19 18 18 18 18 18 17 17 17 16 16 16 15 15 14 14 13 13 13 13 13 14 15 16 18 22 23 20 14 11 11 12 12 12 12 12 11 11 12 14 13 13 17 21 22 20 18 20 23 26 32 36 32 30 30 31 30 29 29 28 27 28 28 29 29 27 26 28 28 30 32 32 31 32 34 36 34 31 30 26 25 26 26
20 19 19 18 18 18 18 18 17 17 17 16 16 16 15 15 14 13 13 13 12 12 13 14 15 15 16 19 22 22 18 11 8 9 9 9 10 11 11 10 12 15 13 13 16 19 21 21 19 20 23 26 31 34 32 29 29 30 30 29 28 28 29 30 31 32 33 33 30 32 33 34 34 35 36 35 35 37 35 33 33 31 30 32 34
20 20 19 19 18 18 18 18 18 17 17 16 16 15 15 14 13 12 12 12 12 11 12 13 14 14 16 18 20 22 20 15 10 8 8 9 8 10 12 12 13 14 14 13 15 16 20 22 20 19 22 25 28 31 31 29 27 27 29 28 27 29 31 32 33 33 35 36 34 34 34 34 35 36 37 35 34 37 37 32 30 30 32 35 37
20 20 20 19 19 18 18 18 18 17 17 17 16 15 14 13 13 12 12 12 11 11 11 12 13 13 14 16 20 22 21 18 13 10 9 11 11 11 12 13 14 15 14 13 13 14 17 21 22 22 23 26 27 28 29 30 27 25 26 27 28 29 32 35 36 36 36 36 35 35 34 35 37 37 36 36 35 38 37 30 25 25 26 27 27
21 20 19 19 19 19 18 19 18 17 17 17 16 15 14 13 12 12 12 12 11 11 12 12 12 13 12 13 18 21 22 20 17 13 11 12 15 15 13 13 14 15 14 13 12 12 15 19 23 25 26 27 27 27 28 29 29 26 25 28 30 29 30 35 38 39 38 37 37 37 36 38 40 40 38 38 38 38 36 30 25 25 22 15 13
20 20 19 19 19 18 18 19 19 18 18 17 16 15 13 12 11 11 11 11 12 12 13 13 13 13 12 11 14 19 21 21 19 18 15 13 15 17 14 13 14 15 14 14 13 13 15 18 22 26 28 28 27 28 28 29 30 29 27 29 31 30 31 32 35 39 42 41 41 41 40 40 42 42 41 40 39 38 37 32 27 26 22 13 11
20 20 20 19 19 18 19 19 19 19 19 17 16 15 13 12 11 10 10 11 11 11 12 13 13 13 13 12 12 14 18 20 21 21 20 17 16 17 16 14 15 15 14 13 14 15 15 17 21 26 29 28 27 28 28 29 31 31 28 28 30 33 34 31 31 38 43 42 42 42 42 42 42 42 42 41 40 39 38 35 30 28 25 19 18
20 21 20 20 20 20 20 19 19 19 18 17 15 14 13 12 11 10 10 10 10 10 10 10 10 10 11 13 13 12 14 18 19 21 22 21 19 18 18 17 16 15 14 13 13 15 17 18 21 26 29 29 28 28 28 31 32 30 29 29 30 34 36 28 26 35 41 40 41 41 41 42 42 41 41 41 40 39 39 37 33 30 29 25 23
22 21 21 21 21 20 19 18 18 18 17 17 15 13 12 10 10 10 11 11 10 10 10 9 8 8 7 7 9 11 12 14 16 18 20 22 22 21 20 18 17 16 14 13 13 15 17 19 22 26 27 29 30 27 27 32 32 30 31 31 29 33 34 25 23 34 39 38 40 41 40 41 42 40 40 41 40 38 38 37 35 33 33 31 28
22 22 21 20 19 18 18 18 18 17 17 16 15 13 11 10 10 11 11 10 10 9 9 8 8 7 6 4 4 7 10 12 14 15 17 19 20 21 20 17 17 16 14 13 13 15 17 19 23 26 26 28 30 27 26 31 32 30 32 31 29 32 32 26 26 33 36 36 38 39 39 39 41 41 39 39 40 39 37 38 36 33 33 34 33
22 22 21 20 19 19 18 18 17 17 16 16 15 13 12 11 12 12 11 11 10 9 8 8 8 7 7 6 5 5 7 11 13 13 14 16 17 19 18 16 15 15 14 13 13 16 17 19 23 25 24 26 29 26 25 29 30 29 32 30 28 31 32 28 29 32 34 34 36 37 38 38 38 40 39 39 40 38 36 36 36 34 33 36 38
23 22 21 21 20 19 18 18 17 17 17 15 14 13 12 13 13 12 11 11 10 9 8 7 8 8 7 8 8 6 6 10 12 11 12 13 15 16 16 14 13 14 14 12 13 15 17 18 21 23 21 24 28 25 24 28 29 28 30 30 28 31 32 30 29 32 33 33 33 35 37 38 37 37 38 39 40 39 36 35 36 35 32 34 39
23 23 22 21 21 20 19 19 18 17 16 14 14 13 12 12 11 10 10 9 8 8 8 7 8 8 7 8 8 8 7 8 11 11 10 10 12 14 14 12 12 13 13 14 14 14 15 16 19 21 20 22 26 25 24 28 29 27 29 30 28 30 32 30 29 30 32 32 32 33 35 37 38 37 36 37 40 42 40 36 36 36 35 34 38
24 23 22 22 21 20 20 20 18 17 15 14 13 12 11 11 10 9 9 8 7 7 8 7 7 7 7 7 8 8 8 8 9 9 10 10 10 12 13 13 12 12 12 14 15 14 15 17 18 19 19 21 25 25 23 26 28 27 28 30 29 29 31 31 29 29 31 32 31 31 33 35 37 37 36 37 39 42 41 37 36 36 36 34 34
25 24 23 23 22 21 20 19 18 16 15 13 12 12 11 10 9 9 8 7 7 7 7 7 7 7 7 7 7 8 8 8 8 8 9 11 11 12 13 13 14 13 14 16 17 15 16 16 17 18 19 20 24 24 22 25 28 27 27 29 29 29 30 31 29 28 30 32 31 31 32 32 34 37 38 37 38 40 40 38 36 36 35 32 30
25 24 24 23 22 21 20 19 18 15 13 12 11 10 9 8 9 10 9 8 8 9 9 9 8 7 7 7 8 8 7 7 8 8 8 10 11 11 12 12 13 14 15 17 17 16 15 15 16 17 18 20 24 25 24 24 26 27 27 28 29 29 29 30 30 29 30 33 33 32 32 32 32 35 37 37 38 39 40 40 38 36 36 33 30
25 24 23 22 21 21 20 19 17 15 15 15 14 13 11 9 9 11 10 8 9 9 10 10 10 9 7 7 7 7 5 5 5 6 7 8 9 10 10 11 12 13 15 16 16 15 15 15 16 17 18 19 23 25 25 24 26 27 27 27 28 30 29 30 32 31 31 33 35 34 32 31 31 32 34 36 37 38 39 40 39 37 36 34 31
25 24 22 22 22 21 19 18 16 16 17 17 17 15 13 10 10 10 9 8 7 7 8 10 11 10 8 6 6 5 3 3 3 4 5 5 6 7 8 10 11 12 14 15 14 14 15 16 16 17 18 18 21 23 24 23 25 27 27 26 27 29 29 30 32 32 31 32 35 35 33 32 31 31 32 33 35 37 37 38 38 38 36 33 31
24 22 22 23 22 20 18 17 17 17 17 17 17 16 15 13 12 11 10 9 8 8 8 9 9 7 6 5 5 5 4 3 3 4 4 4 5 6 7 8 10 11 12 14 13 12 14 15 15 16 17 18 19 21 22 22 23 25 27 26 27 28 28 28 31 32 31 31 34 35 35 33 31 31 31 31 31 34 35 35 36 37 37 34 31
23 22 23 23 21 18 17 18 18 17 17 17 16 16 16 15 13 12 11 10 9 9 8 7 6 5 4 3 3 2 3 4 4 4 4 4 4 5 6 7 8 9 11 12 12 11 13 15 15 15 17 18 18 19 21 21 21 23 25 26 26 28 28 27 28 30 30 30 33 35 34 34 33 31 31 31 30 30 33 34 33 33 34 34 33
23 23 23 22 20 19 19 19 18 18 18 18 17 17 16 15 14 13 12 11 9 9 8 7 7 5 4 3 1 1 2 3 4 4 4 4 4 5 8 8 7 7 7 9 10 10 11 13 14 15 15 16 17 18 19 20 20 21 24 24 24 26 28 27 28 30 28 28 32 34 33 34 34 32 30 31 31 29 29 30 31 30 30 30 31
23 24 24 22 20 19 20 20 19 19 19 19 18 18 17 16 15 15 13 11 9 8 7 8 7 6 5 4 2 1 2 2 3 4 4 3 4 6 9 9 8 7 6 7 9 10 11 12 13 14 14 15 16 17 18 19 19 20 22 23 23 25 28 28 29 31 28 26 30 32 31 32 34 33 30 30 31 30 28 27 27 28 28 27 27
23 24 23 21 19 19 19 18 19 19 19 19 19 19 19 18 17 16 15 13 12 11 10 9 8 7 5 4 4 3 3 3 4 4 4 3 4 6 8 9 9 8 7 6 8 9 10 10 12 13 14 14 15 16 17 18 18 19 21 22 22 24 26 27 28 30 29 27 29 31 30 29 31 33 31 29 29 30 29 28 27 25 24 25 25
24 25 22 19 18 19 18 17 17 17 17 16 15 14 15 16 15 15 15 14 13 14 13 11 8 6 4 3 3 3 3 3 3 4 4 4 4 7 8 9 9 9 7 7 7 9 10 9 10 11 12 13 14 15 15 16 16 17 19 20 21 23 24 25 26 27 27 27 29 31 31 29 29 30 31 30 30 30 28 28 29 27 23 21 22
24 24 21 18 18 18 17 16 16 15 14 14 12 11 12 11 10 10 11 12 11 12 14 15 12 8 8 7 4 2 1 0 1 2 2 2 3 6 8 9 8 7 7 7 7 8 9 9 9 10 11 12 13 13 13 14 15 16 17 18 20 21 21 22 24 25 25 25 27 30 31 30 28 28 29 28 29 32 31 27 27 29 27 22 19
23 22 20 18 19 18 16 16 17 16 14 13 12 12 12 11 9 8 8 9 7 5 9 16 15 12 11 10 7 4 3 4 6 7 5 4 4 6 8 8 7 6 6 7 7 7 8 8 8 8 9 10 11 12 12 13 14 15 16 16 18 20 20 20 22 24 24 24 25 27 29 29 27 27 29 28 26 29 32 29 26 26 27 25 20
23 22 19 18 18 18 16 16 17 16 14 12 12 13 12 11 10 9 6 7 7 5 6 10 13 12 12 10 7 6 6 8 10 10 8 6 5 6 8 7 6 6 6 6 7 7 7 7 8 8 8 9 9 10 11 12 13 14 15 15 16 18 19 19 21 23 23 22 22 23 26 27 26 25 27 28 27 26 28 30 28 25 25 26 23
23 22 19 19 19 17 16 18 18 15 13 12 11 12 12 10 10 9 7 7 9 9 8 7 8 8 9 10 9 7 6 8 10 10 10 8 6 6 7 7 7 7 6 7 7 7 6 7 7 7 8 8 9 10 10 11 12 13 13 14 15 16 17 17 19 21 21 20 20 21 22 24 24 23 23 25 25 24 25 28 28 26 25 25 24
22 21 19 19 17 16 17 18 17 16 14 13 11 11 12 10 8 8 8 8 9 9 8 7 7 7 8 11 10 7 6 7 7 9 10 10 8 7 8 8 7 7 7 7 7 6 6 7 7 7 8 9 10 10 10 10 11 12 13 13 13 14 15 15 16 18 19 18 19 20 21 21 21 21 21 22 22 22 23 25 25 25 25 25 23
22 22 20 17 15 15 16 16 16 16 15 14 11 11 13 13 11 9 8 8 7 7 8 8 8 8 9 11 10 9 8 7 7 9 11 11 10 9 9 9 8 9 9 9 8 8 7 8 8 8 8 9 10 10 10 11 11 12 12 12 13 13 14 14 15 16 17 17 17 18 19 19 19 18 19 20 19 19 20 21 22 23 24 24 24
24 24 21 15 13 15 15 15 16 16 16 14 11 10 10 11 11 10 9 9 8 8 8 9 9 8 9 10 10 10 8 7 8 10 11 12 12 11 10 10 9 9 10 9 8 8 8 9 9 8 8 9 10 10 11 12 12 12 12 12 12 13 13 12 13 14 15 16 17 17 16 17 17 17 18 19 19 18 18 19 20 21 21 22 22
26 26 22 17 14 13 13 14 15 15 14 13 11 10 9 8 9 9 10 10 11 11 10 10 10 9 10 11 12 11 10 9 10 11 12 13 14 13 12 11 11 11 11 11 10 9 9 9 9 10 11 12 12 11 11 11 12 13 13 14 13 13 12 11 12 13 13 14 15 15 15 15 15 16 17 18 18 17 18 18 18 19 20 20 20
25 24 22 20 16 13 12 13 14 13 13 13 12 10 10 9 9 9 10 10 12 12 12 12 12 11 11 12 12 12 12 11 12 13 14 13 13 12 12 12 12 12 13 13 12 11 11 11 11 12 13 13 13 13 13 14 14 13 14 14 15 15 13 12 13 13 11 12 14 15 13 13 14 14 16 16 16 16 17 17 17 17 18 18 19
22 23 23 21 18 16 14 13 13 12 13 14 13 12 12 11 11 11 11 11 11 11 11 12 12 12 12 13 14 14 14 14 13 14 14 13 13 13 12 12 12 12 12 11 11 10 10 11 12 14 16 17 18 19 18 17 16 15 14 14 15 15 14 15 16 15 12 12 15 15 13 11 12 13 14 14 15 15 15 16 16 16 16 16 17
18 21 22 21 20 19 17 16 15 14 13 13 13 13 12 12 13 13 13 12 12 11 11 10 11 11 12 12 13 14 14 14 14 14 14 13 13 14 14 14 14 14 13 13 12 12 12 12 13 15 17 19 21 22 21 20 19 18 17 15 15 15 16 18 19 18 16 15 17 17 14 11 11 13 14 14 14 14 15 15 15 16 16 16 16
16 17 18 18 18 18 17 16 16 16 14 13 13 13 12 12 13 13 14 14 14 14 13 12 12 12 12 13 13 14 14 14 14 14 13 13 13 13 14 14 14 14 15 16 16 16 16 16 17 17 18 20 21 23 23 23 22 21 19 18 16 16 18 20 21 20 20 20 20 19 16 13 11 12 13 14 13 13 14 14 14 15 16 16 15
16 14 14 15 15 15 15 15 15 15 13 12 12 12 12 12 12 11 12 12 13 13 14 14 14 15 15 15 15 14 13 13 13 13 13 13 13 14 14 14 15 17 18 19 20 20 20 20 19 18 18 20 21 22 23 24 24 24 23 22 20 19 20 21 22 23 23 23 22 20 18 15 14 13 12 13 13 13 13 13 14 15 17 17 16
17 16 15 14 14 13 14 14 14 14 14 13 13 12 12 13 13 12 12 11 11 12 12 13 13 14 14 13 14 14 13 13 13 13 14 15 15 16 17 17 18 19 20 20 20 21 21 21 21 20 20 21 22 22 23 24 24 25 26 26 25 23 23 23 24 25 25 25 24 22 20 18 17 16 15 14 14 13 13 13 15 16 17 18 17
13 15 15 15 14 13 13 13 13 13 14 14 14 13 12 13 14 13 13 14 14 14 14 14 14 14 14 13 14 14 13 13 14 15 17 18 17 16 17 17 17 18 19 21 22 22 21 22 22 22 22 22 23 24 25 24 24 25 26 27 27 27 27 27 27 28 28 27 26 25 24 22 20 19 19 17 16 15 15 16 18 18 19 19 17
Wind_Direction
133 133 133 130 127 124 120 118 117 116 116 115 112 107 102 99 94 90 87 82 77 73 68 65 61 57 53 49 46 43 42 41 42 42 41 40 36 33 30 26 26 26 22 20 20 18 14 12 12 11 7 4 0 357 354 351 348 344 341 337 332 330 327 319 311 306 306 309 310 308 309 313 312 311 311 310 309 307 302 296 285 269 260 261 259
131 130 129 125 123 121 119 118 116 115 116 115 110 106 102 98 95 92 88 82 79 75 71 66 61 57 53 48 45 43 41 42 45 44 41 39 38 35 32 30 29 28 25 22 21 18 15 14 13 10 6 3 0 357 354 350 348 343 340 337 332 329 328 321 315 311 309 311 312 311 312 314 312 311 312 310 308 306 302 296 286 272 264 262 259
131 129 126 124 122 122 120 118 115 113 113 111 108 106 103 100 98 94 91 86 81 76 71 67 62 58 53 47 43 40 41 46 48 44 41 40 39 36 34 32 32 30 28 25 21 19 17 15 12 8 5 2 360 357 353 349 346 343 339 337 332 329 328 325 320 314 310 311 313 314 314 314 312 311 312 311 308 306 303 296 288 278 270 264 259
131 129 127 124 123 122 120 117 113 110 109 107 106 105 102 102 100 97 95 89 82 77 72 66 62 57 52 46 42 39 42 49 51 47 44 43 41 38 36 35 35 33 29 27 24 20 18 15 12 8 4 1 358 354 351 347 343 341 338 335 333 330 328 326 322 317 312 311 312 314 313 312 311 311 313 312 310 310 306 301 297 289 276 265 260
132 131 128 125 123 121 119 115 109 107 107 105 104 103 102 102 100 98 95 90 85 80 73 66 62 57 51 46 43 41 44 53 58 51 43 42 44 41 38 38 36 34 32 29 25 22 19 15 12 8 4 360 356 351 347 344 340 337 336 334 334 332 328 325 322 319 315 312 312 313 313 312 311 311 313 314 314 313 311 308 306 300 288 275 265
133 131 130 127 125 123 120 115 110 109 108 106 106 105 103 102 100 98 94 91 87 81 75 69 64 58 51 48 47 47 48 53 58 56 50 50 50 44 41 41 38 35 34 31 26 22 19 15 11 7 5 360 354 348 345 342 338 335 335 334 332 331 328 326 325 320 316 314 313 313 313 314 315 314 314 314 314 312 311 311 310 309 306 296 280
134 132 131 128 126 123 120 117 114 111 110 109 108 105 104 103 101 99 97 94 89 83 77 71 66 60 52 48 51 55 55 53 56 60 59 57 53 46 43 43 40 38 36 31 26 22 17 14 11 9 6 360 352 347 344 342 338 335 333 329 326 324 321 324 328 326 322 322 318 316 316 317 316 315 314 314 313 309 309 313 314 314 315 312 301
135 133 131 128 125 122 120 117 115 112 110 109 107 105 103 101 100 99 97 94 89 83 79 74 68 63 54 49 53 60 60 56 56 58 56 52 50 47 46 45 41 39 36 30 24 21 16 14 13 10 5 359 352 347 346 345 341 336 335 334 330 326 321 320 325 330 329 327 324 320 319 318 316 316 316 318 317 313 314 314 310 310 312 312 308
134 133 130 127 125 123 120 117 115 113 110 107 106 104 103 101 100 98 95 92 89 85 81 75 70 65 58 52 54 61 62 57 53 52 50 50 50 50 49 48 43 40 37 30 24 21 16 14 14 10 4 359 355 353 352 353 350 343 341 342 337 333 329 323 323 332 334 329 326 323 319 317 318 319 320 319 317 314 313 312 307 308 311 308 304
133 133 130 128 126 123 121 119 117 115 111 108 108 105 103 102 100 96 94 92 90 87 82 77 71 66 61 55 54 61 64 60 57 54 52 51 52 54 53 49 46 43 37 32 27 21 17 15 15 10 5 2 2 4 5 4 3 357 351 348 342 340 339 334 330 339 339 333 329 326 320 318 319 318 317 314 312 311 310 310 308 307 309 307 301
133 133 130 129 128 124 123 121 118 117 114 110 109 106 104 103 99 96 95 93 92 89 83 78 72 66 62 57 55 59 63 64 65 62 60 57 53 58 57 49 47 45 39 35 30 23 17 16 18 13 9 6 7 10 12 9 7 3 358 356 353 351 351 348 345 347 342 332 329 328 323 319 319 318 316 313 312 311 307 304 303 301 301 302 299
135 133 131 131 129 126 126 123 120 120 116 113 111 108 105 103 99 97 95 92 92 89 84 81 75 67 62 57 54 57 62 69 68 64 66 61 54 59 59 51 46 42 41 41 34 26 20 18 20 16 11 9 9 11 11 10 8 5 1 2 3 2 0 357 352 347 340 332 330 330 324 319 320 319 317 317 315 312 307 299 293 291 290 288 290
136 134 133 132 130 129 128 125 122 120 117 115 113 109 106 102 99 97 95 93 91 87 85 84 77 69 62 56 53 53 57 68 67 64 66 61 57 61 58 51 47 39 41 45 34 28 26 23 19 14 11 10 10 11 11 11 10 7 4 6 8 6 3 359 356 353 348 341 334 331 329 326 324 321 319 320 318 316 313 303 294 290 284 282 283
136 135 134 133 131 130 128 125 122 119 118 116 112 109 106 102 100 97 95 94 91 87 87 85 79 72 64 56 52 49 50 59 66 61 56 52 58 62 54 50 48 40 40 44 35 31 31 26 18 12 9 9 9 10 12 11 9 8 8 9 8 6 4 0 359 358 355 351 343 336 337 335 330 326 325 324 323 321 318 309 299 294 287 283 280
137 136 134 132 131 130 127 124 122 119 117 114 109 107 106 104 103 100 97 96 93 90 90 88 83 76 65 56 52 48 47 53 63 59 48 41 49 58 53 47 45 41 41 41 36 35 33 26 19 10 5 4 5 7 9 9 7 6 9 11 8 6 6 4 1 358 355 354 349 343 342 341 338 336 336 334 331 330 326 316 306 299 292 287 282
134 132 132 132 132 130 128 125 122 120 118 115 110 108 107 106 105 102 99 97 96 94 91 89 86 80 67 56 52 51 49 51 56 58 49 40 42 51 52 47 42 42 41 33 28 33 32 24 16 9 3 1 1 2 4 5 4 359 360 2 1 1 5 5 4 1 356 354 353 349 348 349 349 350 349 345 341 340 337 332 325 316 303 291 284
135 134 135 134 132 131 130 126 124 122 119 116 113 111 110 110 110 110 107 103 100 97 92 88 86 82 75 60 52 52 52 50 52 54 50 46 47 47 45 41 39 37 37 33 25 23 20 14 10 8 4 1 0 360 359 359 359 356 351 351 351 353 358 2 3 2 358 356 356 355 354 355 357 358 358 355 351 349 347 342 340 335 321 296 289
138 137 134 132 132 132 130 127 125 123 120 118 117 115 114 116 117 118 117 114 111 105 95 90 85 81 80 72 57 52 51 50 50 50 49 50 51 46 39 34 32 27 28 33 28 17 9 3 4 7 5 2 1 0 359 356 354 353 349 347 346 346 348 354 359 0 360 359 359 360 359 360 0 1 2 0 358 358 354 347 348 349 338 321 317
137 134 131 130 131 129 128 127 125 122 120 118 118 116 117 119 121 123 125 124 121 115 105 97 92 85 82 78 67 54 50 49 48 47 45 45 49 47 40 32 26 20 20 26 23 16 9 1 0 5 6 4 1 0 1 358 354 352 349 346 346 345 345 346 353 358 360 359 359 360 0 2 2 2 3 2 2 3 0 356 359 1 354 345 340
131 130 129 130 128 126 126 125 124 123 121 119 119 119 121 126 130 132 130 125 121 117 113 109 106 100 88 78 73 64 52 48 48 45 42 41 44 45 39 29 20 13 13 18 16 12 8 1 358 2 5 5 2 1 3 0 356 354 351 348 348 349 348 346 352 358 359 358 358 359 0 2 3 3 3 3 3 4 4 3 5 7 5 1 356
128 128 129 130 128 127 126 125 125 124 123 121 121 121 125 134 138 135 128 125 123 121 121 119 117 118 109 86 75 70 55 45 44 44 40 38 39 39 35 29 22 12 7 10 11 8 4 359 355 358 3 3 0 0 2 1 360 359 356 355 356 355 353 353 356 357 357 358 359 0 1 2 4 4 5 4 3 3 3 5 8 11 13 13 8
132 131 132 133 132 130 129 128 126 124 123 122 122 124 131 135 134 131 129 128 129 129 128 127 123 122 126 119 90 78 58 39 37 42 39 35 34 32 29 27 24 16 5 2 2 358 354 352 353 356 0 0 358 359 1 1 2 3 1 1 3 1 357 358 0 358 355 357 359 0 1 3 4 4 5 5 4 4 4 5 9 14 18 21 22
138 137 137 135 132 131 130 128 127 124 124 125 126 129 135 134 132 133 134 135 136 136 134 133 129 123 118 110 101 92 63 36 30 39 41 35 31 26 21 20 21 18 10 2 356 347 341 342 349 355 359 359 357 359 2 1 3 4 3 3 5 4 360 360 2 360 356 356 359 0 0 2 4 5 5 6 6 6 7 8 11 16 21 25 29
141 138 136 134 132 132 131 129 127 125 126 128 131 135 140 141 142 146 148 148 148 144 140 136 130 123 116 106 95 87 67 36 25 33 42 39 32 22 15 15 21 23 17 5 354 345 341 343 351 356 0 360 358 0 3 3 3 5 4 4 6 6 3 1 2 3 359 357 359 1 0 2 3 4 6 8 9 10 11 11 13 19 24 28 33
139 137 137 136 135 133 131 129 128 128 130 134 138 143 149 150 151 155 156 152 146 141 137 131 124 117 111 107 94 79 68 46 28 27 34 37 34 22 12 14 26 29 17 4 358 353 351 354 358 1 2 1 360 3 5 4 4 5 5 6 6 6 5 2 2 4 2 359 359 1 2 3 4 4 6 10 13 15 14 12 14 19 24 29 34
140 140 139 137 136 133 131 130 130 133 137 141 145 149 151 150 147 146 144 137 130 131 130 126 124 119 109 105 97 80 64 46 32 28 31 36 38 27 17 19 31 32 16 4 2 0 1 6 5 3 4 4 2 4 5 4 5 6 7 7 7 7 7 4 2 4 4 360 358 0 2 4 6 7 9 12 15 17 16 14 15 18 21 25 31
142 141 138 137 137 135 133 134 136 142 145 147 150 151 146 141 136 128 126 128 128 126 120 112 110 107 98 94 93 85 65 37 27 34 38 39 39 33 25 24 29 27 13 4 3 3 5 8 6 3 5 7 5 5 6 6 6 6 7 8 8 8 9 7 4 4 4 0 358 360 3 6 9 11 12 14 16 17 18 18 19 19 20 23 28
142 140 139 139 139 137 138 141 144 144 139 136 139 137 128 124 120 109 103 109 117 117 110 98 85 79 80 76 74 77 67 31 18 29 35 33 32 31 28 26 23 18 8 360 0 5 9 8 4 6 9 8 6 6 5 6 7 6 6 8 9 8 9 9 6 5 4 2 360 359 2 7 11 13 14 16 16 17 19 21 22 22 23 26 27
142 141 142 141 139 140 145 149 144 130 118 113 112 111 112 122 129 120 109 108 114 116 117 110 93 80 84 84 74 72 60 21 12 23 27 26 25 25 25 22 15 10 4 357 356 2 9 7 5 9 11 9 7 6 3 4 6 5 4 7 9 8 8 9 7 3 3 3 1 359 1 6 11 14 16 17 18 18 20 23 24 23 25 28 29
143 144 143 142 143 147 152 153 141 126 119 117 112 108 109 118 129 129 123 123 127 128 133 129 113 99 97 99 91 81 58 18 15 26 27 28 29 29 27 22 15 9 2 358 358 4 5 4 7 11 11 9 8 6 3 3 5 4 1 4 8 9 9 8 6 4 3 4 3 1 1 4 10 15 17 18 19 19 21 24 26 26 26 28 30
146 146 145 145 150 154 154 148 139 133 132 129 123 119 116 114 118 123 123 123 124 122 127 134 133 128 124 113 96 78 55 36 32 30 30 40 46 38 27 20 21 19 4 354 356 6 8 4 7 11 10 9 9 6 3 3 4 3 0 0 5 8 9 8 6 4 4 5 4 4 4 4 8 14 18 19 19 20 22 24 27 29 30 30 30
148 147 148 152 157 155 148 144 143 141 140 138 136 134 130 125 125 128 125 119 114 109 111 120 129 135 135 121 101 64 37 38 38 32 37 53 52 28 7 359 7 15 7 353 349 360 9 7 5 8 9 8 7 6 4 3 5 4 1 360 2 5 6 7 6 6 6 5 4 4 5 5 6 11 18 20 19 20 23 25 26 30 33 34 34
150 149 151 156 158 152 147 147 148 147 147 149 150 150 150 149 148 146 141 133 122 113 108 106 106 106 105 111 123 41 32 40 35 34 49 65 44 6 354 354 356 359 3 1 354 356 7 10 6 5 8 6 4 4 5 4 5 5 3 1 1 1 2 3 5 7 9 8 5 5 6 7 7 8 14 20 20 19 22 26 28 30 33 36 38
152 151 153 156 156 153 152 153 155 155 157 160 163 165 166 164 160 156 155 155 154 148 137 125 117 110 101 100 102 60 48 50 39 38 50 58 26 354 346 353 2 360 359 8 3 356 0 9 8 5 6 6 3 4 6 5 5 5 4 2 1 0 0 1 3 6 8 8 7 7 7 8 9 8 10 16 19 18 20 25 29 33 36 37 41
152 152 155 157 156 155 158 161 162 163 166 170 175 177 174 170 170 171 171 172 177 178 173 162 150 134 110 91 91 83 69 62 54 49 51 43 11 353 345 350 1 5 5 13 11 358 355 4 9 4 2 3 3 2 4 5 5 4 4 3 1 360 0 2 2 5 7 7 7 8 8 9 11 11 9 12 14 16 19 22 25 32 39 41 44
151 154 158 159 157 158 162 164 164 167 171 174 178 174 167 167 175 179 179 183 189 188 187 187 181 170 163 141 114 111 102 77 52 44 50 42 5 348 339 335 341 351 357 4 6 357 351 358 5 2 1 3 2 1 3 5 4 3 3 3 1 360 2 2 2 4 8 8 6 7 8 8 11 13 11 10 11 12 16 21 25 28 36 44 49
153 158 161 161 160 161 163 165 166 168 170 171 169 162 160 168 179 179 178 187 196 192 187 186 187 196 207 208 193 176 174 24 313 312 346 4 337 330 325 317 318 333 344 348 352 349 346 351 358 358 358 359 359 358 360 2 1 360 0 1 1 1 3 2 1 5 10 9 6 6 7 6 9 12 11 10 11 11 11 16 22 25 28 38 49
157 161 163 161 161 162 162 162 164 165 166 168 165 163 166 174 182 184 177 173 179 195 188 181 186 207 226 224 216 212 228 261 273 275 281 286 292 310 314 307 305 318 329 332 336 339 339 343 350 353 354 355 355 354 355 357 357 356 357 358 358 1 5 3 1 6 11 9 5 6 7 6 8 10 9 9 11 12 11 12 15 19 22 28 39
160 164 165 162 162 161 156 154 156 159 166 174 170 167 173 177 178 185 184 162 166 209 219 194 196 215 225 216 208 212 226 247 266 274 273 264 272 299 306 299 298 308 315 318 321 325 330 335 340 344 344 345 348 349 349 350 350 351 354 354 353 358 4 3 360 3 8 7 5 4 6 8 9 8 7 8 10 11 11 10 11 15 17 18 24
162 167 167 163 165 163 154 154 161 167 176 184 177 169 173 178 177 185 194 180 178 198 218 220 224 228 206 183 176 191 225 250 268 279 276 262 256 273 286 288 291 296 300 305 308 312 319 325 329 334 335 334 338 340 340 342 344 344 348 350 349 352 358 358 357 0 4 5 5 4 3 5 8 7 8 9 9 9 10 8 8 12 15 14 17
163 168 165 161 166 165 156 158 170 176 181 191 191 175 173 182 187 193 200 200 195 198 212 232 248 238 200 183 186 210 257 274 276 279 282 279 268 262 267 274 280 285 289 293 295 300 307 309 311 317 320 320 324 328 329 332 335 336 340 344 343 345 350 350 351 356 359 1 6 7 4 4 6 7 7 10 9 9 9 8 6 8 11 12 13
161 167 165 160 166 170 163 163 172 178 183 194 199 184 175 182 193 201 207 208 206 205 215 234 246 235 213 210 224 244 263 273 265 262 271 278 276 271 269 268 270 276 280 279 279 287 293 293 296 305 311 314 319 323 322 322 323 325 329 334 335 336 340 342 343 348 352 356 3 6 4 3 4 4 5 9 11 8 8 8 6 5 7 7 7
160 168 169 164 167 173 173 172 176 180 184 190 194 188 182 182 188 198 208 212 213 216 225 236 242 234 221 220 229 239 249 260 262 259 261 264 265 265 266 266 269 275 277 273 272 280 285 284 286 292 296 300 307 311 312 313 315 316 316 319 323 326 329 330 334 340 345 349 355 0 360 359 1 1 360 5 10 8 6 6 5 3 3 3 3
159 169 174 173 174 178 178 178 180 184 186 186 188 193 198 197 196 202 208 211 212 216 226 237 243 241 229 220 220 231 246 260 263 259 258 259 258 258 263 269 272 274 273 269 269 275 281 282 282 285 291 298 303 304 304 306 307 308 307 306 307 311 315 315 319 330 339 343 345 350 352 354 357 356 355 358 4 4 2 3 2 360 359 359 359
158 166 173 176 181 185 186 186 188 189 188 188 191 195 199 204 212 219 221 220 217 214 218 228 237 240 232 222 223 236 248 252 250 248 250 253 257 261 268 272 272 271 270 267 265 266 269 273 278 282 288 294 296 295 295 295 294 295 298 299 297 298 298 295 300 315 332 337 336 340 345 349 351 350 348 351 355 355 356 358 358 356 356 355 353
159 163 170 176 183 190 194 194 195 195 191 190 194 199 200 204 213 223 228 229 226 222 222 227 233 237 234 229 230 237 242 244 247 252 255 259 265 269 270 271 272 274 275 274 272 271 270 271 277 281 283 285 289 292 294 295 292 290 290 291 291 291 290 285 286 296 310 321 327 333 338 342 344 340 336 340 346 346 346 350 351 350 350 350 348
166 165 171 177 182 190 195 197 198 200 199 197 196 200 206 208 211 218 226 229 230 232 237 240 243 245 243 240 240 242 244 247 253 259 262 265 268 269 269 269 269 268 269 270 270 272 273 274 278 283 285 287 291 294 296 297 295 291 288 286 284 284 285 283 281 284 291 301 312 321 326 330 332 328 324 330 339 339 337 340 342 341 343 344 343
174 171 177 180 182 188 194 196 196 197 200 203 202 202 209 214 214 215 221 224 225 227 232 240 247 252 254 256 256 256 256 258 260 262 263 267 269 270 272 274 273 270 268 265 260 258 260 263 267 272 277 282 286 290 292 294 295 293 290 287 281 276 277 279 279 281 285 290 297 305 311 313 313 311 312 320 326 327 329 332 332 332 334 335 334
179 179 185 187 187 190 192 194 196 196 199 205 207 206 209 217 222 225 228 228 228 228 229 234 241 245 247 249 252 254 257 261 263 264 267 269 269 269 270 271 270 268 265 263 260 256 254 255 258 265 272 277 280 282 285 288 290 290 290 289 285 278 275 276 277 278 281 284 288 293 297 299 299 298 300 305 311 313 318 321 320 321 325 326 324
182 186 191 192 194 197 196 195 197 199 199 204 210 211 211 214 221 230 236 240 243 244 243 243 247 249 251 253 255 256 259 262 265 268 269 267 266 267 267 266 265 265 265 266 266 262 257 255 256 261 267 270 272 274 277 280 284 287 287 286 285 281 277 276 276 276 277 279 281 285 288 289 291 291 290 294 300 302 302 304 308 312 315 315 314
188 188 193 194 196 200 202 202 204 205 203 202 206 211 213 214 218 224 230 234 241 246 247 250 253 254 255 256 258 258 260 261 261 264 266 268 271 277 278 276 276 276 276 276 276 273 270 266 263 262 263 263 264 267 271 274 278 283 287 287 285 282 279 279 278 278 279 279 278 280 283 283 282 284 285 286 289 289 286 290 297 303 306 308 306